TimeAKST,TemperatureF,Dew PointF,Humidity,Sea Level PressureIn,VisibilityMPH,Wind Direction,Wind SpeedMPH,Gust SpeedMPH,PrecipitationIn,Events,Conditions,WindDirDegrees,DateUTC
12:16 AM,28.4,26.6,93,30.01,10.0,Calm,Calm,-,N/A,,Mostly Cloudy,0,2014-03-01 09:16:00
12:56 AM,26.6,24.8,93,30.01,10.0,Calm,Calm,-,N/A,,Clear,0,2014-03-01 09:56:00
1:16 AM,26.6,24.8,93,30.01,10.0,East,3.5,-,N/A,,Clear,100,2014-03-01 10:16:00
1:36 AM,26.6,24.8,93,30.01,10.0,Calm,Calm,-,N/A,,Clear,0,2014-03-01 10:36:00
1:56 AM,26.6,24.8,93,30.01,10.0,Calm,Calm,-,N/A,,Clear,0,2014-03-01 10:56:00
2:16 AM,26.6,23.0,86,30.01,10.0,Calm,Calm,-,N/A,,Clear,0,2014-03-01 11:16:00
2:36 AM,26.6,23.0,86,30.01,9.0,Calm,Calm,-,N/A,,Clear,0,2014-03-01 11:36:00
2:56 AM,24.8,21.2,86,30.01,10.0,Calm,Calm,-,N/A,,Clear,0,2014-03-01 11:56:00
3:16 AM,24.8,21.2,86,30.01,10.0,Calm,Calm,-,N/A,,Clear,0,2014-03-01 12:16:00
3:36 AM,24.8,21.2,86,30.00,10.0,Calm,Calm,-,N/A,,Clear,0,2014-03-01 12:36:00
3:56 AM,24.8,21.2,86,30.00,10.0,Calm,Calm,-,N/A,,Clear,0,2014-03-01 12:56:00
4:16 AM,23.0,19.4,86,30.00,10.0,Calm,Calm,-,N/A,,Clear,0,2014-03-01 13:16:00
4:36 AM,24.8,21.2,86,29.99,10.0,Calm,Calm,-,N/A,,Clear,0,2014-03-01 13:36:00
4:56 AM,23.0,21.2,93,29.99,10.0,Calm,Calm,-,N/A,,Clear,0,2014-03-01 13:56:00
5:16 AM,21.2,19.4,93,29.99,10.0,Calm,Calm,-,N/A,,Clear,0,2014-03-01 14:16:00
5:36 AM,23.0,19.4,86,29.99,10.0,Calm,Calm,-,N/A,,Clear,0,2014-03-01 14:36:00
5:56 AM,21.2,19.4,93,29.99,10.0,Calm,Calm,-,N/A,,Clear,0,2014-03-01 14:56:00
6:16 AM,21.2,19.4,93,29.99,10.0,Calm,Calm,-,N/A,,Clear,0,2014-03-01 15:16:00
6:36 AM,21.2,19.4,93,29.99,10.0,Calm,Calm,-,N/A,,Mostly Cloudy,0,2014-03-01 15:36:00
6:56 AM,21.2,17.6,86,29.99,10.0,Calm,Calm,-,N/A,,Overcast,0,2014-03-01 15:56:00
7:16 AM,21.2,17.6,86,29.99,10.0,Calm,Calm,-,N/A,,Mostly Cloudy,0,2014-03-01 16:16:00
7:36 AM,19.4,17.6,93,29.99,10.0,Calm,Calm,-,N/A,,Mostly Cloudy,0,2014-03-01 16:36:00
7:56 AM,19.4,17.6,93,29.99,0.2,NNE,3.5,-,N/A,,Overcast,20,2014-03-01 16:56:00
8:16 AM,19.4,17.6,93,29.99,0.2,Calm,Calm,-,N/A,,Overcast,0,2014-03-01 17:16:00
8:36 AM,21.2,17.6,86,30.00,0.2,Calm,Calm,-,N/A,,Overcast,0,2014-03-01 17:36:00
8:56 AM,21.2,19.4,93,29.99,0.2,Calm,Calm,-,N/A,,Overcast,0,2014-03-01 17:56:00
9:16 AM,21.2,19.4,93,29.99,0.8,Calm,Calm,-,N/A,,Overcast,0,2014-03-01 18:16:00
9:36 AM,24.8,21.2,86,29.99,0.2,East,3.5,-,N/A,,Overcast,90,2014-03-01 18:36:00
9:56 AM,24.8,23.0,93,30.00,10.0,East,3.5,-,N/A,,Scattered Clouds,90,2014-03-01 18:56:00
10:16 AM,26.6,24.8,93,29.99,0.5,East,3.5,-,N/A,,Overcast,90,2014-03-01 19:16:00
10:36 AM,26.6,26.6,100,29.99,1.2,East,3.5,-,N/A,,Overcast,100,2014-03-01 19:36:00
10:56 AM,28.4,26.6,93,29.99,0.5,ESE,5.8,-,N/A,,Overcast,110,2014-03-01 19:56:00
11:16 AM,28.4,26.6,93,30.00,1.2,ESE,5.8,-,N/A,,Overcast,110,2014-03-01 20:16:00
11:36 AM,28.4,26.6,93,30.00,7.0,ESE,5.8,-,N/A,,Overcast,110,2014-03-01 20:36:00
11:56 AM,28.4,28.4,100,29.99,10.0,East,5.8,-,N/A,,Mostly Cloudy,100,2014-03-01 20:56:00
12:16 PM,30.2,28.4,93,30.00,10.0,ESE,4.6,-,N/A,,Scattered Clouds,120,2014-03-01 21:16:00
12:36 PM,30.2,28.4,93,30.00,10.0,ESE,5.8,-,N/A,,Partly Cloudy,120,2014-03-01 21:36:00
12:56 PM,32.0,30.2,93,29.99,10.0,ESE,4.6,-,N/A,,Clear,110,2014-03-01 21:56:00
1:16 PM,33.8,30.2,87,29.99,10.0,ESE,3.5,-,N/A,,Clear,110,2014-03-01 22:16:00
1:36 PM,35.6,30.2,81,29.98,10.0,East,4.6,-,N/A,,Clear,100,2014-03-01 22:36:00
1:56 PM,37.4,30.2,75,29.98,10.0,SE,5.8,-,N/A,,Clear,130,2014-03-01 22:56:00
2:16 PM,37.4,30.2,75,29.97,10.0,ESE,4.6,-,N/A,,Clear,110,2014-03-01 23:16:00
2:36 PM,39.2,30.2,70,29.97,10.0,East,5.8,-,N/A,,Clear,100,2014-03-01 23:36:00
2:56 PM,39.2,30.2,70,29.96,10.0,ESE,3.5,-,N/A,,Clear,120,2014-03-01 23:56:00
3:16 PM,41.0,30.2,65,29.96,10.0,ENE,4.6,-,N/A,,Clear,60,2014-03-02 00:16:00
3:36 PM,42.8,28.4,57,29.96,10.0,NE,5.8,-,N/A,,Clear,50,2014-03-02 00:36:00
3:56 PM,42.8,28.4,57,29.96,10.0,North,3.5,-,N/A,,Clear,350,2014-03-02 00:56:00
4:16 PM,42.8,28.4,57,29.96,10.0,ENE,6.9,-,N/A,,Clear,60,2014-03-02 01:16:00
4:36 PM,42.8,28.4,57,29.95,10.0,NE,5.8,-,N/A,,Clear,50,2014-03-02 01:36:00
4:56 PM,42.8,26.6,53,29.95,10.0,NNE,4.6,-,N/A,,Clear,30,2014-03-02 01:56:00
5:16 PM,42.8,26.6,53,29.95,10.0,NE,6.9,-,N/A,,Clear,50,2014-03-02 02:16:00
5:36 PM,42.8,24.8,49,29.94,10.0,NE,5.8,-,N/A,,Clear,40,2014-03-02 02:36:00
5:56 PM,41.0,24.8,53,29.94,10.0,NNE,4.6,-,N/A,,Clear,30,2014-03-02 02:56:00
6:16 PM,41.0,24.8,53,29.95,10.0,Calm,Calm,-,N/A,,Clear,0,2014-03-02 03:16:00
6:36 PM,35.6,21.2,56,29.95,10.0,Calm,Calm,-,N/A,,Clear,0,2014-03-02 03:36:00
6:56 PM,32.0,23.0,69,29.94,10.0,Calm,Calm,-,N/A,,Clear,0,2014-03-02 03:56:00
7:16 PM,30.2,23.0,75,29.94,10.0,Calm,Calm,-,N/A,,Clear,0,2014-03-02 04:16:00
7:36 PM,28.4,21.2,74,29.94,10.0,Calm,Calm,-,N/A,,Clear,0,2014-03-02 04:36:00
7:56 PM,28.4,21.2,74,29.95,10.0,Calm,Calm,-,N/A,,Clear,0,2014-03-02 04:56:00
8:16 PM,26.6,21.2,80,29.95,10.0,Calm,Calm,-,N/A,,Clear,0,2014-03-02 05:16:00
8:36 PM,26.6,21.2,80,29.94,10.0,Calm,Calm,-,N/A,,Clear,0,2014-03-02 05:36:00
8:56 PM,26.6,19.4,74,29.94,10.0,Calm,Calm,-,N/A,,Clear,0,2014-03-02 05:56:00
9:16 PM,26.6,19.4,74,29.95,10.0,Calm,Calm,-,N/A,,Clear,0,2014-03-02 06:16:00
9:36 PM,24.8,17.6,74,29.95,10.0,Calm,Calm,-,N/A,,Clear,0,2014-03-02 06:36:00
9:56 PM,24.8,21.2,86,29.95,10.0,Calm,Calm,-,N/A,,Clear,0,2014-03-02 06:56:00
10:16 PM,23.0,17.6,80,29.95,10.0,Calm,Calm,-,N/A,,Clear,0,2014-03-02 07:16:00
10:36 PM,23.0,17.6,80,29.95,10.0,Calm,Calm,-,N/A,,Clear,0,2014-03-02 07:36:00
10:56 PM,21.2,17.6,86,29.95,10.0,Calm,Calm,-,N/A,,Clear,0,2014-03-02 07:56:00
11:16 PM,21.2,15.8,80,29.95,10.0,Calm,Calm,-,N/A,,Clear,0,2014-03-02 08:16:00
11:36 PM,19.4,15.8,86,29.94,10.0,Calm,Calm,-,N/A,,Clear,0,2014-03-02 08:36:00
11:56 PM,19.4,15.8,86,29.94,10.0,Calm,Calm,-,N/A,,Clear,0,2014-03-02 08:56:00